Regional Weather Roundup
Issued by NWS

Home | Current Version | Previous Version | Graphics & Text | Print | Product List | Glossary On
Versions: 1 2 3 4 5 6 7 8 9 10 11 12 13 14 15 16 17 18 19 20 21 22 23 24 25 26 27 28 29 30 31 32 33 34 35 36 37 38 39 40 41 42 43 44 45 46 47 48 49 50
000
ASUS43 KDTX 311010
RWRMI
MICHIGAN HOURLY REGIONAL WEATHER ROUNDUP
NATIONAL WEATHER SERVICE DETROIT/PONTIAC MI
500 AM EST SAT JAN 31 2015

NOTE: "FAIR" INDICATES FEW OR NO CLOUDS BELOW 12,000 FEET WITH NO
SIGNIFICANT WEATHER AND/OR OBSTRUCTION TO VISIBILITY.

MIZ047>049-052>055-059>063-066>070-074>076-081>083-311100-
SOUTHEAST LOWER MICHIGAN

CITY           SKY/WX    TMP DP  RH WIND       PRES   REMARKS
ADRIAN         PTCLDY    14  10  84 SW3       30.33F
ALMA           CLOUDY    19  15  84 S6        30.26F
ANN ARBOR      PTCLDY     5   2  87 CALM      30.31F
BAD AXE        CLOUDY     8   4  83 S6        30.27F
DETROIT CITY   CLOUDY    17   9  70 S3        30.33F
DETROIT        MOCLDY    13   9  84 S3        30.34F
FLINT          CLOUDY    17   9  70 S8        30.28F
GROSSE ILE     CLOUDY    18  12  79 SW5       30.33S
HILLSDALE      MOCLDY    15  12  88 CALM      30.27F
HOWELL         CLOUDY    14  10  83 S3        30.28F

CITY           SKY/WX    TMP DP  RH WIND       PRES   REMARKS
JACKSON        CLEAR     14  10  84 S3        30.29F
LAMBERTVILLE   MOCLDY    19  12  73 CALM      30.35S
LANSING        CLOUDY    19  13  77 S10       30.28F
LAPEER         NOT AVBL
MASON          MOCLDY    13   9  84 CALM      30.29S
MONROE         PTCLDY    12  10  92 CALM      30.33S
MT. CLEMENS    CLOUDY    12   7  81 SW5       30.31F
PONTIAC        CLOUDY    11   6  81 CALM      30.28F
PORT HOPE        N/A      8   0  69 SW7       30.26F
PORT HURON     MOCLDY    -2  -4  92 CALM      30.31F
TRI CITIES     CLOUDY    17   9  70 S6        30.27F
YPSILANTI      PTCLDY    14   6  70 S5        30.32F
$$
MIZ043>046-050>051-056>058-064>065-071>073-077>080-311100-
SOUTHWEST LOWER MICHIGAN

CITY           SKY/WX    TMP DP  RH WIND       PRES   REMARKS
BATTLE CREEK   CLOUDY    18  12  77 S7        30.28F
BENTON HARBOR  CLOUDY    19  15  84 S6        30.29F
BIG RAPIDS     CLOUDY    16  13  88 SW3       30.21F
COLDWATER      CLOUDY    16  12  85 CALM      30.29F
HOLLAND        CLOUDY    20  14  77 CALM      30.26F
GRAND RAPIDS   CLOUDY    20  14  77 S12       30.25F
KALAMAZOO      CLOUDY    16  12  84 S5        30.28F
MARSHALL       CLOUDY    13  10  87 CALM      30.28F
MUSKEGON       CLOUDY    28  17  63 W8        30.25F
$$
MIZ016>042-311100-
NORTHERN LOWER MICHIGAN

CITY           SKY/WX    TMP DP  RH WIND       PRES   REMARKS
ALPENA         LGT SNOW  11   7  84 S5        30.22F FOG
BEAVER ISLAND  FLURRIES  22  16  77 CALM      30.15F
CADILLAC       CLOUDY    14  10  84 S3        30.16F
CHARLEVOIX     LGT SNOW  17  15  89 S6        30.20F
FRANKFORT      PTSUNNY   19  14  81 SE3       30.19F
GAYLORD        LGT SNOW  13  11  92 S6        30.14F FOG
GRAYLING       CLOUDY    13  10  85 CALM      30.18F
HARBOR SPRINGS LGT SNOW  17  13  87 CALM      30.17F
HOUGHTON LAKE  CLOUDY    14   8  77 SW5       30.20F
MANISTEE       MOCLDY    16   9  73 SE6       30.21F
OSCODA         LGT SNOW   7   3  86 SW3       30.25F
PELLSTON       LGT SNOW  14  11  87 SE5       30.17F FOG
TRAVERSE CITY  CLOUDY    19  11  70 VRB3      30.18F
$$
MIZ007>008-015-311100-
EASTERN UPPER MICHIGAN

CITY           SKY/WX    TMP DP  RH WIND       PRES   REMARKS
KINROSS        CLOUDY    12  12 100 S3        30.15F
MACKINAC ISLAN LGT SNOW  15  11  87 S7        30.16F
NEWBERRY       LGT SNOW  15  13  93 SW10      30.11F
S. S. MARIE    LGT SNOW   9   5  84 E3        30.15F FOG
$$
MIZ004>006-011>014-085-311100-
CENTRAL UPPER MICHIGAN

CITY           SKY/WX    TMP DP  RH WIND       PRES   REMARKS
MANISTIQUE     CLOUDY    19  16  88 SW3       30.13F
ESCANABA       CLOUDY    19   9  63 SW7       30.14F
MENOMINEE      CLOUDY    21  10  63 SW9       30.15S
SAWYER-GWINN   CLOUDY    15  11  85 S6        30.08S
$$
MIZ001>003-009>011-084-311100-
WESTERN UPPER MICHIGAN

CITY           SKY/WX    TMP DP  RH WIND       PRES   REMARKS
IRON MOUNTAIN  CLOUDY    17   8  67 S3        30.09S
HOUGHTON       CLOUDY    16  12  84 SW5       30.04F
COPPER HARBOR    N/A     18  12  77 W8        30.05F
IRONWOOD       CLOUDY    21  18  86 W8        30.05F
$$

ABBREVIATIONS USED IN REMARKS
   TC - TEMPERATURE IN CELSIUS
  WCI - WIND CHILL INDEX
   HX - HEAT INDEX
  VSB - VISIBILITY




USA.gov is the U.S. government's official web portal to all federal, state and local government web resources and services.